This is the latest recevied weather packets stored in our database for station/object NT9G. If no packets are shown the sender has not sent any weather packets the latest 1 day(s).
| Time | Temp. | Humidity | Pressure | Rain* | Wind** | Luminosity | Snow |
|---|---|---|---|---|---|---|---|
| 1778082735 | 13.33° C | 39% | 1016.3 hPa | 0 mm | - | - | - |
| 1778082134 | 12.78° C | 39% | 1016.4 hPa | 0 mm | - | - | - |
| 1778081834 | 12.78° C | 45% | 1016.3 hPa | 0 mm | - | - | - |
| 1778080633 | 11.67° C | 46% | 1016.3 hPa | 0 mm | - | - | - |
| 1778080333 | 11.67° C | 48% | 1016.3 hPa | 0 mm | - | - | - |
| 1778080032 | 11.67° C | 47% | 1016.2 hPa | 0 mm | - | - | - |
| 1778079732 | 11.67° C | 48% | 1016.2 hPa | 0 mm | - | - | - |
| 1778078831 | 11.11° C | 54% | 1016 hPa | 0 mm | - | - | - |
| 1778078531 | 10.56° C | 54% | 1016 hPa | 0 mm | - | - | - |
| 1778077630 | 10° C | 57% | 1016.3 hPa | 0 mm | - | - | - |
| 1778077330 | 10° C | 58% | 1016.3 hPa | 0 mm | - | - | - |
| 1778076729 | 10° C | 56% | 1016.3 hPa | 0 mm | - | - | - |
| 1778074627 | 8.89° C | 61% | 1016.3 hPa | 0 mm | - | - | - |
| 1778074026 | 8.89° C | 62% | 1016.2 hPa | 0 mm | - | - | - |
| 1778073726 | 8.89° C | 62% | 1016.2 hPa | 0 mm | - | - | - |
| 1778073426 | 8.89° C | 63% | 1016.2 hPa | 0 mm | - | - | - |
| 1778072825 | 8.33° C | 64% | 1015.9 hPa | 0 mm | - | - | - |
| 1778069521 | 7.22° C | 66% | 1014.9 hPa | 0 mm | - | - | - |
| 1778069221 | 7.22° C | 65% | 1014.9 hPa | 0 mm | - | - | - |
| 1778068320 | 7.22° C | 63% | 1014.4 hPa | 0 mm | - | - | - |
| 1778066217 | 6.11° C | 67% | 1013.7 hPa | 0 mm | - | - | - |
| 1778065616 | 6.67° C | 67% | 1013.6 hPa | 0 mm | - | - | - |
| 1778065316 | 6.67° C | 66% | 1013.7 hPa | 0 mm | - | - | - |
| 1778064415 | 6.67° C | 66% | 1013.6 hPa | 0 mm | - | - | - |
| 1778064115 | 6.67° C | 66% | 1013.5 hPa | 0 mm | - | - | - |
* Rain since midnight (hover to see other rain measurements)
** Current wind speed in m/s (hover to see current wind gust speed)